Apalachee Bay - Ochlockonee Bay Weather Center

Moon Phase Calendar



Online Cameras

 


      

Current Conditions in Wakulla
4/18/2024 7:47:31 AM

66°F
Feels Like 67
Clouds
Humidity
98%
Pressure
30.12"
Wind
2.6 mph (N)
Dew Point
66°F
UV Index
0/10 (Low)
Visibility
6 mi

Hourly Forecast

Date & Time Thu, Apr 18
7:00 AM
Thu, Apr 18
8:00 AM
Thu, Apr 18
9:00 AM
Thu, Apr 18
10:00 AM
Thu, Apr 18
11:00 AM
Thu, Apr 18
12:00 PM
Thu, Apr 18
1:00 PM
Thu, Apr 18
2:00 PM
Thu, Apr 18
3:00 PM
Thu, Apr 18
4:00 PM
Thu, Apr 18
5:00 PM
Thu, Apr 18
6:00 PM
Thu, Apr 18
7:00 PM
Thu, Apr 18
8:00 PM
Thu, Apr 18
9:00 PM
Thu, Apr 18
10:00 PM
Thu, Apr 18
11:00 PM
Fri, Apr 19
12:00 AM
Fri, Apr 19
1:00 AM
Fri, Apr 19
2:00 AM
Fri, Apr 19
3:00 AM
Fri, Apr 19
4:00 AM
Fri, Apr 19
5:00 AM
Fri, Apr 19
6:00 AM
Fri, Apr 19
7:00 AM
Fri, Apr 19
8:00 AM
Fri, Apr 19
9:00 AM
Fri, Apr 19
10:00 AM
Fri, Apr 19
11:00 AM
Fri, Apr 19
12:00 PM
Fri, Apr 19
1:00 PM
Fri, Apr 19
2:00 PM
Fri, Apr 19
3:00 PM
Fri, Apr 19
4:00 PM
Fri, Apr 19
5:00 PM
Fri, Apr 19
6:00 PM
Fri, Apr 19
7:00 PM
Fri, Apr 19
8:00 PM
Fri, Apr 19
9:00 PM
Fri, Apr 19
10:00 PM
Fri, Apr 19
11:00 PM
Sat, Apr 20
12:00 AM
Sat, Apr 20
1:00 AM
Sat, Apr 20
2:00 AM
Sat, Apr 20
3:00 AM
Sat, Apr 20
4:00 AM
Sat, Apr 20
5:00 AM
Sat, Apr 20
6:00 AM
Condition
Clouds

Clouds

Clouds

Clouds

Clouds

Clouds

Clouds

Clouds

Clouds

Clouds

Clouds

Clouds

Clouds

Clouds

Clouds

Clouds

Clouds

Clouds

Clouds

Clouds

Clouds

Clouds

Clouds

Clouds

Clouds

Clouds

Clouds

Clouds

Clouds

Clouds

Clouds

Clouds

Clear

Clear

Clear

Clear

Clear

Clear

Clear

Clear

Clear

Clear

Clear

Clear

Clear

Clear

Clear

Clouds
Temperature 67°F66°F67°F68°F69°F71°F72°F72°F73°F73°F73°F73°F73°F72°F71°F72°F72°F71°F70°F70°F69°F69°F69°F69°F69°F69°F70°F72°F74°F75°F74°F73°F73°F74°F74°F74°F74°F73°F73°F73°F73°F71°F71°F70°F70°F69°F69°F69°F
Feels Like 67°F67°F68°F69°F70°F71°F72°F72°F73°F74°F74°F74°F73°F73°F72°F72°F72°F72°F71°F70°F70°F70°F70°F69°F69°F70°F71°F73°F74°F75°F75°F74°F74°F74°F75°F74°F74°F74°F74°F74°F73°F72°F71°F71°F70°F70°F70°F69°F
Cloudiness 98%98%87%87%83%84%84%86%100%100%100%100%97%92%100%100%100%100%86%76%14%53%49%41%36%31%60%44%57%44%36%30%4%2%1%2%1%1%0%0%0%1%1%2%0%5%10%11%
Visibility 6 mi6 mi6 mi6 mi6 mi6 mi6 mi6 mi6 mi6 mi6 mi6 mi6 mi6 mi6 mi6 mi6 mi6 mi6 mi6 mi6 mi6 mi6 mi6 mi6 mi6 mi6 mi6 mi6 mi6 mi6 mi6 mi6 mi6 mi6 mi6 mi6 mi6 mi6 mi6 mi6 mi6 mi6 mi6 mi6 mi6 mi6 mi6 mi
Precipitation 0%0%0%0%0%0%0%0%0%0%0%0%0%0%0%0%0%0%0%0%0%0%0%0%0%0%0%0%0%0%0%0%0%0%0%0%0%0%0%0%0%0%0%0%0%0%0%0%
Humidity 95%98%94%88%81%76%71%71%72%72%74%75%76%80%81%80%80%79%80%82%83%84%84%85%84%83%79%74%73%69%72%75%74%74%73%74%75%79%79%74%72%75%78%80%81%82%82%81%
Dew Point 65°F66°F65°F64°F63°F63°F62°F62°F63°F64°F65°F65°F65°F65°F65°F65°F65°F64°F64°F64°F64°F64°F64°F64°F64°F64°F64°F64°F64°F64°F65°F65°F65°F65°F65°F65°F66°F66°F66°F64°F63°F63°F63°F64°F64°F63°F63°F63°F
Pressure 30.12"30.12"30.12"30.12"30.12"30.12"30.12"30.09"30.09"30.06"30.06"30.03"30.06"30.06"30.06"30.06"30.09"30.06"30.06"30.03"30.06"30.03"30.03"30.03"30.06"30.06"30.09"30.09"30.09"30.09"30.06"30.06"30.03"30"30"30"30"30.03"30.03"30.06"30.06"30.06"30.03"30.03"30.03"30.03"30.03"30.03"
Wind Speed 1.7 mph2.6 mph2 mph1.5 mph2.6 mph5.3 mph10.1 mph9.9 mph11.1 mph11.1 mph10.2 mph12.1 mph9.4 mph11.1 mph9.1 mph8.8 mph11.8 mph6.7 mph8.4 mph6.6 mph9 mph6.4 mph5.8 mph5.5 mph5.7 mph5.1 mph3.8 mph3 mph1.7 mph4.5 mph9.3 mph12.5 mph14.4 mph15.7 mph16.9 mph17 mph15.1 mph14.8 mph12.8 mph11.9 mph9.5 mph10.6 mph8.5 mph7.9 mph8.8 mph7.8 mph7.1 mph6 mph
Wind
Direction
343°
NNW
354°
N
21°
NNE

N
181°
S
176°
S
167°
SSE
186°
S
189°
S
194°
SSW
204°
SSW
212°
SSW
221°
SW
229°
SW
229°
SW
234°
SW
281°
W
267°
W
282°
WNW
293°
WNW
292°
WNW
316°
NW
306°
NW
319°
NW
315°
NW
340°
NNW
349°
N
309°
NW
226°
SW
183°
S
185°
S
194°
SSW
198°
SSW
207°
SSW
217°
SW
223°
SW
228°
SW
232°
SW
242°
WSW
260°
W
269°
W
276°
W
279°
W
283°
WNW
296°
WNW
301°
WNW
306°
NW
308°
NW

Daily Forecast

Date High Low Precip. Humidity
Today
Apr 18

Clouds
73 °F
66 °F
0%
71%
Friday
Apr 19

Clouds
75 °F
69 °F
0%
72%
Saturday
Apr 20

Clouds
75 °F
69 °F
0%
69%
Sunday
Apr 21

Rain
74 °F
68 °F
100%
80%
Monday
Apr 22

Rain
74 °F
62 °F
100%
50%
Tuesday
Apr 23

Clouds
71 °F
60 °F
0%
55%
Wednesday
Apr 24

Clouds
72 °F
66 °F
0%
85%
Thursday
Apr 25

Clear
74 °F
68 °F
0%
75%
Friday
Apr 26

Rain
75 °F
71 °F
27%
82%
Saturday
Apr 27

Rain
76 °F
62 °F
100%
63%
Sunday
Apr 28

Clear
78 °F
61 °F
0%
51%
Monday
Apr 29

Clouds
76 °F
62 °F
0%
46%
Tuesday
Apr 30

Clouds
75 °F
64 °F
0%
51%
Wednesday
May 1

Clouds
75 °F
67 °F
0%
72%
Thursday
May 2

Clouds
74 °F
72 °F
0%
77%
Friday
May 3

Clouds
76 °F
71 °F
0%
82%

Temperature 8-14 Day Outlook



Precipitation 8-14 Day Outlook




Quick Links
Apalachee Bay - Ochlockonee Bay News
Apalachee Bay - Ochlockonee Bay Photos
Apalachee Bay - Ochlockonee Bay Videos




About Us
Contact Us
Site Map
Search Site
Advertise With Us
   
Apalachee.USGulf.info
THE APALACHEE BAY - OCHLOCKONEE BAY WEBSITE

Copyright 2024, Coastal Town
Privacy    |    Legal